Hilo, HI

7:21 AM HST on June 27, 2017 (GMT -1000)
Hilo International

Weather History for PHTO - March, 2013

Change the Weather History Date:

Tuesday, March 26, 2013

  Actual Average Record
Temperature  
Mean Temperature 75 °F 72 °F  
Max Temperature 82 °F 79 °F 87 °F (2003)
Min Temperature 68 °F 65 °F 56 °F (1955)
Degree Days  
Heating Degree Days 0 0  
Month to date heating degree days 0 0  
Since 1 July heating degree days 0 0  
Cooling Degree Days 10 7  
Month to date cooling degree days 170 179  
Year to date cooling degree days 542 549  
Growing Degree Days 25 (Base 50)    
Moisture  
Dew Point 64 °F    
Average Humidity 69    
Maximum Humidity 84    
Minimum Humidity 54    
Precipitation  
Precipitation T in 0.44 in 4.00 in (1974)
Month to date precipitation 2.04 11.18  
Year to date precipitation 33.54 30.00  
Snow  
Snow 0.00 in - - ()
Month to date snowfall 0.0  
Since 1 July snowfall 0.0  
Snow Depth 0.00 in    
Sea Level Pressure  
Sea Level Pressure 30.01 in    
Wind  
Wind Speed 6 mph (SSE)    
Max Wind Speed 14 mph    
Max Gust Speed 19 mph    
Visibility 10 miles    
Events Rain    
T = Trace of Precipitation, MM = Missing Value Source: NWS Daily Summary

Daily Weather History Graph

Daily Weather History Graph

Search for Another Location

Airport or City:

Trip Planner

Search our weather history database for the weather conditions in past years. The results will help you decide how hot, cold, wet, or windy it might be!

Date:

Astronomy

Mar. 26, 2013 Rise Set
Actual Time 6:18 AM HST 6:32 PM HST
Civil Twilight 5:56 AM HST 6:54 PM HST
Nautical Twilight 5:31 AM HST 7:20 PM HST
Astronomical Twilight 5:05 AM HST 7:46 PM HST
Moon 6:17 PM HST (3/26) 5:40 AM HST (3/26)
Length of Visible Light 12h 58m
Length of Day
12h 14m
Full, 100% of the Moon is Illuminated
Mar 26
Full
Mar 26
Full
Apr 2
Last Quarter
Apr 9
New
Apr 18
First Quarter

Hourly Weather History & Observations

Time (HST) Temp. Heat Index Dew Point Humidity Pressure Visibility Wind Dir Wind Speed Gust Speed Precip Events Conditions
12:13 AM 70.0 °F - 64.9 °F 84% 30.02 in 10.0 mi WNW 4.6 mph - N/A   Overcast
12:34 AM 70.0 °F - 64.9 °F 84% 30.02 in 10.0 mi SSW 3.5 mph - 0.00 in Rain Light Rain
12:53 AM 69.1 °F - 64.9 °F 87% 30.00 in 10.0 mi WSW 5.8 mph - 0.00 in   Overcast
1:53 AM 69.1 °F - 64.9 °F 87% 29.99 in 10.0 mi WSW 6.9 mph - N/A   Overcast
2:53 AM 69.1 °F - 64.0 °F 84% 29.98 in 10.0 mi Calm Calm - N/A   Overcast
3:21 AM 69.1 °F - 64.0 °F 84% 29.97 in 10.0 mi SW 3.5 mph - N/A   Overcast
3:53 AM 69.1 °F - 64.0 °F 84% 29.97 in 10.0 mi SW 4.6 mph - N/A   Overcast
4:15 AM 69.1 °F - 64.0 °F 84% 29.98 in 10.0 mi WSW 4.6 mph - N/A   Overcast
4:53 AM 69.1 °F - 64.0 °F 84% 29.98 in 10.0 mi WSW 5.8 mph - N/A   Overcast
5:53 AM 69.1 °F - 64.0 °F 84% 29.99 in 10.0 mi SW 4.6 mph - N/A   Mostly Cloudy
6:53 AM 69.1 °F - 64.9 °F 87% 30.02 in 10.0 mi West 3.5 mph - N/A   Mostly Cloudy
7:53 AM 73.0 °F - 64.9 °F 76% 30.04 in 10.0 mi WSW 3.5 mph - N/A   Scattered Clouds
8:53 AM 77.0 °F - 63.0 °F 62% 30.06 in 10.0 mi Calm Calm - N/A   Mostly Cloudy
9:53 AM 77.0 °F - 63.0 °F 62% 30.06 in 10.0 mi Calm Calm - N/A   Mostly Cloudy
10:53 AM 80.1 °F 81.7 °F 64.0 °F 58% 30.05 in 10.0 mi ENE 9.2 mph - N/A   Mostly Cloudy
11:53 AM 80.1 °F 81.9 °F 64.9 °F 60% 30.03 in 10.0 mi ENE 12.7 mph - N/A   Mostly Cloudy
12:53 PM 81.0 °F 82.2 °F 63.0 °F 54% 30.01 in 10.0 mi ENE 12.7 mph - N/A   Mostly Cloudy
1:53 PM 80.1 °F 81.5 °F 63.0 °F 56% 29.98 in 10.0 mi East 10.4 mph - N/A   Mostly Cloudy
2:53 PM 80.1 °F 81.9 °F 64.9 °F 60% 29.97 in 10.0 mi East 9.2 mph - N/A   Mostly Cloudy
3:53 PM 75.9 °F - 64.0 °F 67% 29.96 in 10.0 mi ESE 8.1 mph - N/A   Mostly Cloudy
4:03 PM 77.0 °F - 64.0 °F 64% 29.97 in 10.0 mi East 11.5 mph - N/A   Overcast
4:17 PM 77.0 °F - 64.0 °F 64% 29.97 in 10.0 mi ENE 9.2 mph - N/A   Overcast
4:53 PM 75.9 °F - 64.0 °F 67% 29.97 in 10.0 mi East 8.1 mph - N/A   Mostly Cloudy
5:53 PM 73.9 °F - 64.0 °F 71% 29.99 in 10.0 mi East 6.9 mph - N/A   Overcast
6:53 PM 72.0 °F - 64.0 °F 76% 30.01 in 10.0 mi East 3.5 mph - N/A   Mostly Cloudy
7:53 PM 72.0 °F - 64.0 °F 76% 30.02 in 10.0 mi Calm Calm - N/A   Partly Cloudy
8:53 PM 71.1 °F - 64.0 °F 78% 30.04 in 10.0 mi Calm Calm - N/A   Mostly Cloudy
9:18 PM 71.1 °F - 64.9 °F 81% 30.04 in 10.0 mi Calm Calm - N/A   Mostly Cloudy
9:29 PM 70.0 °F - 64.9 °F 84% 30.04 in 10.0 mi Calm Calm - N/A   Mostly Cloudy
9:53 PM 70.0 °F - 64.0 °F 81% 30.04 in 10.0 mi Calm Calm - N/A   Scattered Clouds
10:53 PM 71.1 °F - 64.9 °F 81% 30.04 in 10.0 mi Calm Calm - N/A   Mostly Cloudy
11:53 PM 69.1 °F - 64.9 °F 87% 30.03 in 10.0 mi Calm Calm - N/A   Mostly Cloudy